Location: Unspecified
(0.0000°N, 0.0000°E)
Time: 03:45:31
(UTC+00:00)

Vanguard 1 - Pass Details

Date: 12 December 2023
Orbit: 653 x 3826 km, 34.3° (Epoch: 22 February)

Event Time Altitude Azimuth Distance (km) Brightness Sun altitude
Rises 14:28:07 0° 275° (W) 3,579 13.5 46.0°
Reaches altitude 10° 14:30:58 10° 292° (WNW) 2,933 13.0 45.4°
Maximum altitude 14:36:25 22° 341° (NNW) 2,750 12.5 44.2°
Drops below altitude 10° 14:44:30 10° 26° (NNE) 4,525 13.2 42.5°
Sets 14:50:31 0° 39° (NE) 6,189 13.7 41.2°
